�������l�o���
Date,Time,MP-1(��Sv/h),MP-2(��Sv/h),MP-3(��Sv/h),MP-4(��Sv/h),MP-5(��Sv/h),MP-6(��Sv/h),MP-7(��Sv/h),MP-8(��Sv/h),����,����(m/s),���J
2022/09/11,00:00,0.593,0.836,0.530,1.015,0.728,0.338,0.586,0.556,�k�k��,6.6,��
2022/09/11,00:10,0.592,0.836,0.528,1.013,0.727,0.336,0.587,0.554,�k�k��,6.1,��
2022/09/11,00:20,0.590,0.835,0.530,1.016,0.729,0.336,0.586,0.555,�k�k��,5.7,��
2022/09/11,00:30,0.590,0.836,0.529,1.017,0.729,0.338,0.586,0.556,�k�k��,6.2,��
2022/09/11,00:40,0.592,0.835,0.531,1.015,0.729,0.337,0.587,0.556,�k�k��,5.7,��
2022/09/11,00:50,0.590,0.833,0.530,1.014,0.727,0.337,0.586,0.556,�k�k��,5.8,�L
2022/09/11,01:00,0.591,0.835,0.528,1.015,0.728,0.337,0.587,0.554,�k�k��,5.9,��
2022/09/11,01:10,0.592,0.834,0.530,1.015,0.727,0.337,0.586,0.555,�k�k��,6.8,��
2022/09/11,01:20,0.592,0.834,0.529,1.014,0.727,0.337,0.585,0.555,�k,6.4,��
2022/09/11,01:30,0.591,0.834,0.529,1.014,0.727,0.337,0.587,0.555,�k�k��,6.2,��
2022/09/11,01:40,0.591,0.833,0.528,1.014,0.729,0.337,0.587,0.555,�k,6.0,��
2022/09/11,01:50,0.591,0.832,0.529,1.016,0.728,0.337,0.587,0.555,�k,6.4,��
2022/09/11,02:00,0.591,0.834,0.528,1.015,0.727,0.338,0.588,0.555,�k,6.0,��
2022/09/11,02:10,0.591,0.835,0.529,1.015,0.730,0.337,0.586,0.555,�k,6.7,��
2022/09/11,02:20,0.590,0.837,0.529,1.015,0.729,0.337,0.588,0.554,�k,5.6,��
2022/09/11,02:30,0.592,0.835,0.529,1.017,0.728,0.337,0.585,0.555,�k,5.8,��
2022/09/11,02:40,0.590,0.836,0.529,1.014,0.727,0.337,0.586,0.555,�k,6.6,��
2022/09/11,02:50,0.590,0.834,0.531,1.015,0.727,0.337,0.587,0.553,�k,7.9,��
2022/09/11,03:00,0.590,0.834,0.531,1.018,0.728,0.338,0.586,0.554,�k,6.7,��
2022/09/11,03:10,0.591,0.832,0.529,1.012,0.728,0.337,0.586,0.555,�k,6.7,��
2022/09/11,03:20,0.590,0.833,0.531,1.016,0.728,0.336,0.587,0.555,�k�k��,5.1,��
2022/09/11,03:30,0.589,0.833,0.529,1.013,0.727,0.337,0.587,0.555,�k�k��,5.1,��
2022/09/11,03:40,0.590,0.834,0.528,1.015,0.727,0.337,0.584,0.554,�k�k��,6.3,��
2022/09/11,03:50,0.589,0.832,0.528,1.015,0.727,0.335,0.587,0.555,�k�k��,6.0,��
2022/09/11,04:00,0.590,0.833,0.528,1.013,0.727,0.337,0.587,0.555,�k�k��,6.8,��
2022/09/11,04:10,0.590,0.833,0.529,1.016,0.728,0.337,0.587,0.556,�k,6.5,��
2022/09/11,04:20,0.591,0.833,0.529,1.015,0.726,0.337,0.586,0.554,�k,6.1,��
2022/09/11,04:30,0.591,0.832,0.527,1.015,0.728,0.339,0.586,0.556,�k,5.5,��
2022/09/11,04:40,0.590,0.833,0.529,1.016,0.727,0.337,0.587,0.554,�k,5.3,��
2022/09/11,04:50,0.592,0.835,0.530,1.016,0.729,0.337,0.586,0.555,�k�k��,6.1,��
2022/09/11,05:00,0.592,0.833,0.529,1.017,0.726,0.336,0.589,0.555,�k�k��,6.2,��
2022/09/11,05:10,0.591,0.835,0.528,1.016,0.727,0.336,0.586,0.554,�k�k��,5.5,��
2022/09/11,05:20,0.590,0.833,0.529,1.016,0.727,0.337,0.586,0.555,�k�k��,5.7,��
2022/09/11,05:30,0.589,0.832,0.529,1.013,0.726,0.338,0.586,0.555,�k�k��,6.4,��
2022/09/11,05:40,0.592,0.835,0.529,1.017,0.728,0.339,0.586,0.553,�k�k��,5.0,��
2022/09/11,05:50,0.591,0.832,0.529,1.016,0.729,0.338,0.587,0.554,�k�k��,5.7,��
2022/09/11,06:00,0.591,0.835,0.531,1.013,0.727,0.336,0.587,0.555,�k�k��,5.1,��
2022/09/11,06:10,0.589,0.834,0.530,1.017,0.726,0.338,0.586,0.556,�k�k��,5.4,��
2022/09/11,06:20,0.591,0.835,0.530,1.017,0.726,0.337,0.587,0.555,�k�k��,4.7,��
2022/09/11,06:30,0.591,0.834,0.531,1.015,0.727,0.338,0.586,0.554,�k�k��,5.4,��
2022/09/11,06:40,0.590,0.836,0.528,1.017,0.726,0.337,0.588,0.556,�k�k��,5.6,��
2022/09/11,06:50,0.590,0.836,0.528,1.015,0.730,0.337,0.587,0.556,�k�k��,4.5,��
2022/09/11,07:00,0.590,0.836,0.530,1.015,0.730,0.337,0.587,0.555,�k�k��,5.7,��
2022/09/11,07:10,0.590,0.834,0.529,1.017,0.728,0.338,0.586,0.554,�k�k��,4.7,��
2022/09/11,07:20,0.590,0.835,0.530,1.014,0.729,0.337,0.586,0.555,�k�k��,5.3,��
2022/09/11,07:30,0.593,0.835,0.530,1.017,0.728,0.337,0.587,0.555,�k�k��,5.7,��
2022/09/11,07:40,0.592,0.834,0.529,1.015,0.728,0.338,0.587,0.554,�k�k��,5.9,��
2022/09/11,07:50,0.591,0.835,0.528,1.017,0.730,0.337,0.589,0.554,�k�k��,4.8,��
2022/09/11,08:00,0.591,0.834,0.528,1.017,0.727,0.336,0.588,0.555,�k�k��,6.6,��
2022/09/11,08:10,0.593,0.834,0.528,1.017,0.729,0.339,0.586,0.553,�k,5.8,��
2022/09/11,08:20,0.589,0.834,0.529,1.016,0.726,0.339,0.587,0.554,�k,5.5,��
2022/09/11,08:30,0.590,0.834,0.529,1.015,0.729,0.338,0.588,0.554,�k�k��,5.7,��
2022/09/11,08:40,0.590,0.832,0.529,1.015,0.726,0.336,0.587,0.553,�k,5.5,��
2022/09/11,08:50,0.591,0.831,0.527,1.018,0.726,0.337,0.587,0.554,�k,4.9,��
2022/09/11,09:00,0.591,0.833,0.528,1.016,0.726,0.339,0.588,0.554,�k,5.2,��
2022/09/11,09:10,0.592,0.834,0.528,1.017,0.726,0.337,0.588,0.550,�k�k��,5.5,��
2022/09/11,09:20,0.591,0.833,0.529,1.017,0.727,0.337,0.587,0.553,�k,5.3,��
2022/09/11,09:30,0.591,0.832,0.527,1.019,0.728,0.337,0.588,0.555,�k�k��,5.0,��
2022/09/11,09:40,0.592,0.834,0.527,1.017,0.727,0.338,0.588,0.553,�k,5.1,��
2022/09/11,09:50,0.592,0.834,0.529,1.016,0.726,0.338,0.589,0.554,�k�k��,4.7,��
2022/09/11,10:00,0.592,0.836,0.527,1.019,0.727,0.338,0.588,0.553,�k,5.2,��
2022/09/11,10:10,0.592,0.834,0.528,1.017,0.726,0.338,0.588,0.554,�k�k��,5.7,��
2022/09/11,10:20,0.593,0.833,0.529,1.016,0.727,0.338,0.587,0.552,�k,5.0,��
2022/09/11,10:30,0.592,0.835,0.528,1.018,0.728,0.338,0.588,0.553,�k,6.5,��
2022/09/11,10:40,0.592,0.835,0.529,1.018,0.728,0.337,0.587,0.553,�k�k��,5.7,��
2022/09/11,10:50,0.592,0.835,0.529,1.018,0.727,0.339,0.588,0.555,�k�k��,5.9,��
2022/09/11,11:00,0.593,0.836,0.528,1.019,0.727,0.337,0.588,0.554,�k�k��,6.4,��
2022/09/11,11:10,0.593,0.836,0.527,1.016,0.729,0.337,0.588,0.553,�k,6.7,��
2022/09/11,11:20,0.593,0.836,0.529,1.016,0.730,0.337,0.589,0.554,�k,6.1,��
2022/09/11,11:30,0.594,0.835,0.527,1.017,0.730,0.336,0.588,0.554,�k�k��,6.2,��
2022/09/11,11:40,0.592,0.835,0.528,1.017,0.730,0.338,0.589,0.555,�k�k��,5.2,��
2022/09/11,11:50,0.594,0.836,0.530,1.017,0.730,0.338,0.589,0.553,�k,6.3,��
2022/09/11,12:00,0.592,0.836,0.531,1.018,0.730,0.337,0.588,0.555,�k,5.4,��
2022/09/11,12:10,0.594,0.837,0.529,1.018,0.731,0.338,0.589,0.554,�k,5.9,��
2022/09/11,12:20,0.594,0.838,0.528,1.018,0.732,0.338,0.589,0.555,�k,6.1,��
2022/09/11,12:30,0.594,0.837,0.528,1.019,0.731,0.338,0.589,0.553,�k�k��,5.7,��
2022/09/11,12:40,0.593,0.837,0.529,1.019,0.729,0.338,0.588,0.555,�k�k��,4.8,��
2022/09/11,12:50,0.594,0.840,0.528,1.017,0.730,0.339,0.587,0.554,�k�k��,4.8,��
2022/09/11,13:00,0.593,0.837,0.530,1.016,0.730,0.339,0.589,0.555,�k�k��,5.2,��
2022/09/11,13:10,0.594,0.838,0.529,1.018,0.730,0.339,0.590,0.555,�k�k��,4.5,��
2022/09/11,13:20,0.593,0.839,0.530,1.017,0.731,0.339,0.589,0.554,�k�k��,5.5,��
2022/09/11,13:30,0.595,0.838,0.528,1.017,0.731,0.339,0.589,0.555,�k�k��,5.1,��
2022/09/11,13:40,0.594,0.838,0.530,1.016,0.732,0.338,0.589,0.554,�k�k��,5.4,��
2022/09/11,13:50,0.594,0.838,0.530,1.018,0.731,0.338,0.588,0.556,�k�k��,6.2,��
2022/09/11,14:00,0.593,0.838,0.530,1.021,0.730,0.339,0.589,0.555,�k�k��,6.2,��
2022/09/11,14:10,0.593,0.837,0.529,1.019,0.732,0.339,0.588,0.556,�k,6.4,��
2022/09/11,14:20,0.594,0.838,0.528,1.018,0.730,0.339,0.589,0.556,�k,6.2,��
2022/09/11,14:30,0.594,0.838,0.531,1.019,0.730,0.338,0.589,0.555,�k�k��,5.2,��
2022/09/11,14:40,0.595,0.839,0.530,1.019,0.730,0.338,0.592,0.555,�k,5.8,��
2022/09/11,14:50,0.594,0.841,0.529,1.021,0.730,0.339,0.588,0.555,�k�k��,4.8,��
2022/09/11,15:00,0.593,0.837,0.529,1.020,0.733,0.338,0.589,0.554,�k,6.0,��
2022/09/11,15:10,0.592,0.838,0.530,1.020,0.731,0.339,0.588,0.557,�k�k��,5.2,��
2022/09/11,15:20,0.594,0.839,0.529,1.021,0.733,0.338,0.589,0.557,�k�k��,6.4,��
2022/09/11,15:30,0.593,0.838,0.531,1.021,0.730,0.338,0.588,0.554,�k�k��,6.2,��
2022/09/11,15:40,0.594,0.840,0.530,1.022,0.732,0.338,0.589,0.554,�k�k��,5.0,��
2022/09/11,15:50,0.593,0.841,0.531,1.022,0.731,0.339,0.590,0.556,�k,6.0,��
2022/09/11,16:00,0.593,0.838,0.529,1.022,0.731,0.338,0.591,0.555,�k,5.7,��
2022/09/11,16:10,0.594,0.840,0.529,1.021,0.731,0.339,0.591,0.553,�k,5.8,��
2022/09/11,16:20,0.593,0.840,0.528,1.022,0.732,0.339,0.590,0.554,�k,5.6,��
2022/09/11,16:30,0.595,0.840,0.531,1.022,0.730,0.339,0.589,0.556,�k,6.2,��
2022/09/11,16:40,0.594,0.840,0.530,1.021,0.731,0.338,0.588,0.555,�k,6.0,��
2022/09/11,16:50,0.593,0.839,0.529,1.020,0.731,0.338,0.590,0.556,�k�k��,5.4,��
2022/09/11,17:00,0.595,0.839,0.529,1.023,0.732,0.337,0.590,0.555,�k�k��,5.2,��
2022/09/11,17:10,0.594,0.838,0.529,1.024,0.733,0.338,0.590,0.555,�k,5.0,��
2022/09/11,17:20,0.592,0.840,0.529,1.022,0.733,0.338,0.591,0.556,�k,4.5,��
2022/09/11,17:30,0.592,0.841,0.530,1.022,0.733,0.338,0.588,0.556,�k,4.7,��
2022/09/11,17:40,0.593,0.839,0.531,1.024,0.732,0.337,0.589,0.556,�k,4.2,��
2022/09/11,17:50,0.594,0.839,0.530,1.023,0.732,0.338,0.589,0.556,�k,4.2,��
2022/09/11,18:00,0.594,0.841,0.532,1.022,0.731,0.338,0.590,0.555,�k,3.7,��
2022/09/11,18:10,0.593,0.841,0.529,1.023,0.731,0.339,0.590,0.559,�k,3.8,��
2022/09/11,18:20,0.595,0.840,0.532,1.022,0.733,0.339,0.591,0.557,�k,3.8,��
2022/09/11,18:30,0.596,0.841,0.530,1.021,0.731,0.339,0.591,0.557,�k,4.2,��
2022/09/11,18:40,0.595,0.842,0.531,1.022,0.734,0.338,0.590,0.556,�k,4.1,��
2022/09/11,18:50,0.596,0.840,0.532,1.021,0.733,0.338,0.589,0.557,�k,4.3,��
2022/09/11,19:00,0.595,0.841,0.531,1.023,0.734,0.340,0.591,0.556,�k�k��,3.7,��
2022/09/11,19:10,0.598,0.843,0.532,1.023,0.733,0.338,0.590,0.558,�k,3.1,��
2022/09/11,19:20,0.595,0.843,0.532,1.022,0.733,0.338,0.590,0.557,�k,4.0,��
2022/09/11,19:30,0.597,0.841,0.532,1.023,0.733,0.338,0.589,0.557,�k,3.4,��
2022/09/11,19:40,0.596,0.843,0.533,1.021,0.733,0.339,0.590,0.556,�k,3.9,��
2022/09/11,19:50,0.596,0.840,0.532,1.022,0.734,0.340,0.590,0.557,�k�k��,4.2,��
2022/09/11,20:00,0.595,0.841,0.533,1.022,0.733,0.339,0.590,0.556,�k�k��,4.0,��
2022/09/11,20:10,0.595,0.840,0.533,1.023,0.734,0.338,0.590,0.557,�k�k��,3.8,��
2022/09/11,20:20,0.598,0.842,0.531,1.022,0.733,0.340,0.588,0.557,�k�k��,4.4,��
2022/09/11,20:30,0.597,0.841,0.533,1.022,0.734,0.339,0.590,0.556,�k�k��,4.0,�L
2022/09/11,20:40,0.596,0.843,0.532,1.024,0.734,0.339,0.591,0.556,�k�k��,3.9,�L
2022/09/11,20:50,0.596,0.841,0.531,1.022,0.733,0.340,0.590,0.557,�k�k��,4.4,�L
2022/09/11,21:00,0.595,0.841,0.532,1.021,0.732,0.339,0.592,0.557,�k�k��,3.5,��
2022/09/11,21:10,0.595,0.840,0.532,1.023,0.733,0.338,0.590,0.558,�k�k��,3.5,��
2022/09/11,21:20,0.595,0.840,0.533,1.022,0.733,0.339,0.590,0.557,�k�k��,4.1,��
2022/09/11,21:30,0.597,0.839,0.533,1.021,0.734,0.338,0.592,0.557,�k�k��,4.0,��
2022/09/11,21:40,0.596,0.842,0.532,1.021,0.733,0.339,0.589,0.557,�k�k��,4.4,��
2022/09/11,21:50,0.595,0.842,0.534,1.023,0.733,0.338,0.590,0.558,�k�k��,3.4,�L
2022/09/11,22:00,0.595,0.841,0.532,1.021,0.733,0.340,0.589,0.558,�k�k��,2.6,��
2022/09/11,22:10,0.595,0.841,0.532,1.021,0.734,0.340,0.590,0.558,�k�k��,4.0,��
2022/09/11,22:20,0.595,0.841,0.532,1.024,0.732,0.339,0.590,0.557,�k�k��,4.0,��
2022/09/11,22:30,0.596,0.840,0.533,1.023,0.732,0.339,0.590,0.558,�k��,4.3,��
2022/09/11,22:40,0.596,0.840,0.533,1.025,0.736,0.339,0.590,0.557,�k�k��,4.7,�L
2022/09/11,22:50,0.595,0.841,0.533,1.023,0.735,0.339,0.590,0.557,�k�k��,4.5,�L
2022/09/11,23:00,0.597,0.841,0.532,1.024,0.734,0.341,0.592,0.556,�k�k��,3.9,��
2022/09/11,23:10,0.596,0.839,0.533,1.024,0.733,0.340,0.590,0.557,�k�k��,3.5,��
2022/09/11,23:20,0.597,0.840,0.533,1.025,0.734,0.340,0.591,0.557,�k��,4.1,��
2022/09/11,23:30,0.597,0.841,0.534,1.024,0.734,0.340,0.589,0.557,�k��,4.2,��
2022/09/11,23:40,0.596,0.842,0.533,1.024,0.734,0.338,0.591,0.557,�k��,3.4,��
2022/09/11,23:50,0.596,0.841,0.531,1.024,0.732,0.339,0.591,0.557,�k��,4.6,�L
